FW4339 Weather Reports


time (UTC)temp
F
wind
direction
speed
knots
gust
knots
rain 1hr
in
rain 24hr
in
rain mn
in
humidity
%
barometer
mb
20260508130001 69 0.0 0.0 0.00 0.00 0.00 64 1014.3
20260508124605 69 0.0 0.0 0.00 0.00 0.00 62 1014.7
20260508123001 67 0.0 0.0 0.00 0.00 0.00 62 1015.0
20260508121501 68 0.0 0.0 0.00 0.00 0.00 59 1015.1
20260508120101 70 0.0 0.0 0.00 0.00 0.00 59 1014.7
20260508114557 69 0.0 0.0 0.00 0.00 0.00 60 1015.2
20260508113105 69 0.0 0.0 0.00 0.00 0.00 61 1015.4
20260508111602 68 0.0 0.0 0.00 0.00 0.00 62 1015.7
20260508110056 69 0.0 0.0 0.00 0.00 0.00 58 1015.7
20260508104600 68 0.0 0.0 0.00 0.00 0.00 55 1016.1
20260508103052 68 0.0 0.0 0.00 0.00 0.00 59 1016.1
20260508101550 68 0.0 0.0 0.00 0.00 0.00 59 1016.2
20260508100050 68 0.0 0.0 0.00 0.00 0.00 57 1016.3
20260508094550 68 0.0 0.0 0.00 0.00 0.00 57 1016.6
20260508093055 67 0.0 0.0 0.00 0.00 0.00 59 1016.8
20260508091558 66 0.0 0.0 0.00 0.00 0.00 61 1016.8
20260508090104 66 0.0 0.0 0.00 0.00 0.00 62 1016.6
20260508084550 65 0.0 0.0 0.00 0.00 0.00 65 1016.6
20260508083047 66 0.0 0.0 0.00 0.00 0.00 63 1016.8
20260508081555 67 0.0 0.0 0.00 0.00 0.00 59 1016.7
20260508080050 67 0.0 0.0 0.00 0.00 0.00 55 1016.4
20260508074545 68 0.0 0.0 0.00 0.00 0.00 55 1016.4
20260508073047 67 0.0 0.0 0.00 0.00 0.00 57 1016.5
20260508071554 66 0.0 0.0 0.00 0.00 0.00 63 1016.7
20260508070052 66 0.0 0.0 0.00 0.00 0.00 65 1016.9
20260508064536 65 0.0 0.0 0.00 0.00 0.00 66 1016.9
20260508063032 64 0.0 0.0 0.00 0.00 0.00 68 1016.9
20260508061534 64 0.0 0.0 0.00 0.00 0.00 66 1016.6
20260508060037 64 0.0 0.0 0.00 0.00 0.00 67 1016.1
20260508054539 64 0.0 0.0 0.00 0.00 0.00 66 1015.8
20260508053030 64 0.0 0.0 0.00 0.00 0.00 66 1015.6
20260508051533 64 0.0 0.0 0.00 0.00 0.00 65 1015.5
20260508050025 64 0.0 0.0 0.00 0.00 0.00 63 1015.5
20260508044522 64 0.0 0.0 0.00 0.00 0.00 63 1015.4
20260508043021 64 0.0 0.0 0.00 0.00 0.00 63 1015.2
20260508041517 64 0.0 0.0 0.00 0.00 0.00 62 1014.9
20260508040027 64 0.0 0.0 0.00 0.00 0.00 62 1015.0
20260508034517 64 0.0 0.0 0.00 0.00 0.00 62 1014.9
20260508033010 63 0.0 0.0 0.00 0.00 0.00 65 1014.8
20260508031508 63 0.0 0.0 0.00 0.00 0.00 66 1014.7
20260508030007 63 0.0 0.0 0.00 0.00 0.00 68 1014.9
20260508024507 63 0.0 0.0 0.00 0.00 0.00 70 1015.1
20260508023021 63 0.0 0.0 0.00 0.00 0.00 70 1015.1
20260508021520 63 0.0 0.0 0.00 0.00 0.00 70 1015.1
20260508020019 63 0.0 0.0 0.00 0.00 0.00 71 1015.1
20260508014523 63 0.0 0.0 0.00 0.00 0.00 71 1015.2
20260508013003 63 0.0 0.0 0.00 0.00 0.00 69 1015.2
20260508011502 63 0.0 0.0 0.00 0.00 0.00 69 1015.3
20260508010001 63 0.0 0.0 0.00 0.00 0.00 70 1015.3
20260508004500 63 0.0 0.0 0.00 0.00 0.00 69 1015.4
20260508001605 63 0.0 0.0 0.00 0.00 0.00 68 1015.6
20260507234557 63 0.0 0.0 0.00 0.00 0.00 70 1015.9
20260507233007 63 0.0 0.0 0.00 0.00 0.00 72 1015.9
20260507231505 63 0.0 0.0 0.00 0.00 0.00 73 1016.1
20260507230008 63 0.0 0.0 0.00 0.00 0.00 73 1016.1
20260507224603 63 0.0 0.0 0.00 0.00 0.00 73 1016.1
20260507221550 63 0.0 0.0 0.00 0.00 0.00 72 1016.4
20260507220048 64 0.0 0.0 0.00 0.00 0.00 71 1016.7
20260507214548 63 0.0 0.0 0.00 0.00 0.00 71 1016.8
20260507211551 64 0.0 0.0 0.00 0.00 0.00 70 1016.9
20260507210044 64 0.0 0.0 0.00 0.00 0.00 69 1016.7
20260507204544 64 0.0 0.0 0.00 0.00 0.00 68 1016.7
20260507201549 63 0.0 0.0 0.00 0.00 0.00 69 1016.9
20260507200047 63 0.0 0.0 0.00 0.00 0.00 71 1016.9
20260507194547 63 0.0 0.0 0.00 0.00 0.00 72 1016.9
20260507191544 64 0.0 0.0 0.00 0.00 0.00 72 1016.8
20260507190042 64 0.0 0.0 0.00 0.00 0.00 71 1016.8
20260507184542 64 0.0 0.0 0.00 0.00 0.00 70 1016.7
20260507181541 64 0.0 0.0 0.00 0.00 0.00 70 1016.6
20260507180049 64 0.0 0.0 0.00 0.00 0.00 71 1016.6
20260507174541 64 0.0 0.0 0.00 0.00 0.00 70 1016.6
20260507171539 65 0.0 0.0 0.00 0.00 0.00 67 1016.2
20260507170048 66 0.0 0.0 0.00 0.00 0.00 66 1016.0
20260507164538 65 0.0 0.0 0.00 0.00 0.00 66 1016.3
20260507161549 67 0.0 0.0 0.00 0.00 0.00 64 1016.4
20260507160041 67 0.0 0.0 0.00 0.00 0.00 61 1016.3
20260507154542 68 0.0 0.0 0.00 0.00 0.00 58 1016.4
20260507151539 69 0.0 0.0 0.00 0.00 0.00 54 1016.5
20260507150038 70 0.0 0.0 0.00 0.00 0.00 53 1016.4
20260507144539 71 0.0 0.0 0.00 0.00 0.00 51 1016.3
20260507141538 70 0.0 0.0 0.00 0.00 0.00 55 1016.1
20260507140038 69 0.0 0.0 0.00 0.00 0.00 56 1016.1
20260507134537 69 0.0 0.0 0.00 0.00 0.00 55 1016.0
20260507131543 73 0.0 0.0 0.00 0.00 0.00 52 1016.0